Preview of NWS' New Version of Forecast
This preview is not operational and should not be used for support decisions.

Regional Weather Roundup (RWR)

Issued by National Weather Service (NWS)

                            
000
ASUS43 KBIS 220002
RWRND 

NORTH DAKOTA REGIONAL WEATHER ROUNDUP
NATIONAL WEATHER SERVICE BISMARCK ND
700 PM CDT SUN APR 21 2019

NOTE: "FAIR" INDICATES FEW OR NO CLOUDS BELOW 12,000 FEET WITH NO
SIGNIFICANT WEATHER AND/OR OBSTRUCTIONS TO VISIBILITY.


NDZ001>003-009>011-017-220100-
NORTHWEST NORTH DAKOTA
  
CITY           SKY/WX    TMP DP  RH WIND       PRES   REMARKS
WILLISTON      FAIR      64  22  20 N10       30.11R                  
6HR MIN TEMP:  53; 6HR MAX TEMP:  66;                                

MINOT          CLOUDY    62  37  39 W5        30.07S                  
MINOT AFB      CLOUDY    64  36  36 SW5       30.05S                  
$$
 
NDZ018>021-031>035-040>046-220100-
SOUTHWEST NORTH DAKOTA
  
CITY           SKY/WX    TMP DP  RH WIND       PRES   REMARKS
BISMARCK       FAIR      60  33  36 NE12      30.07R                  
6HR MIN TEMP:  55; 6HR MAX TEMP:  62;                                

DICKINSON      FAIR      56  38  50 N6        30.09R                  
GARRISON         N/A     58  35  42 N10       30.08R                  
6HR MIN TEMP:  55; 6HR MAX TEMP:  64;                                

HETTINGER ARPT CLOUDY    54  35  48 NE13      30.09R                  
$$
 
NDZ004>008-012>016-024-026-027-054-220100-
NORTHEAST NORTH DAKOTA
  
CITY           SKY/WX    TMP DP  RH WIND       PRES   REMARKS
GRAND FORKS    PTSUNNY   61  30  31 NE8       30.04R                  
GRND FRKS AFB  PTSUNNY   66  28  24 NE7       30.09R                  
DEVILS LAKE    FAIR      59  30  33 SW6       30.08S                  
$$
 
NDZ022-023-025-028>030-036>039-047>053-220100-
SOUTHEAST NORTH DAKOTA
  
CITY           SKY/WX    TMP DP  RH WIND       PRES   REMARKS
FARGO          FAIR      58  39  49 NE13      30.01R                  
6HR MIN TEMP:  58; 6HR MAX TEMP:  64;                                

JAMESTOWN      CLOUDY    54  44  69 N9        30.04S                  
$$